GW0884 Weather Reports


Display with metric or nautical units.
time (UTC)temp
F
wind
direction
speed
MPH
gust
MPH
rain 1hr
in
rain 24hr
in
rain mn
in
humidity
%
barometer
mb
20260507040132 64 343 5.0 6.0 0.00 0.00 0.00 79 1010.0
20260507035628 64 2 3.0 5.0 0.00 0.14 0.14 79 1009.8
20260507035124 64 265 2.0 2.0 0.00 0.14 0.14 79 1010.1
20260507034621 65 351 2.0 3.0 0.00 0.14 0.14 78 1010.5
20260507034119 65 286 5.0 6.0 0.00 0.14 0.14 77 1010.4
20260507033617 65 359 5.0 7.0 0.00 0.14 0.14 75 1010.2
20260507033114 65 28 3.0 3.0 0.00 0.14 0.14 75 1010.1
20260507032611 66 326 2.0 2.0 0.00 0.14 0.14 77 1010.4
20260507032107 66 342 4.0 5.0 0.00 0.14 0.14 76 1010.1
20260507031604 66 353 3.0 3.0 0.00 0.14 0.14 76 1010.0
20260507031101 66 342 1.0 2.0 0.00 0.14 0.14 75 1009.8
20260507030557 67 272 1.0 1.0 0.00 0.14 0.14 74 1009.7
20260507030055 67 297 3.0 3.0 0.00 0.14 0.14 73 1009.9
20260507025552 67 353 4.0 6.0 0.00 0.14 0.14 72 1009.7
20260507025049 67 299 3.0 3.0 0.00 0.14 0.14 71 1009.8
20260507024547 67 274 2.0 2.0 0.00 0.14 0.14 70 1009.6
20260507024043 67 319 3.0 5.0 0.00 0.14 0.14 70 1009.0
20260507023539 67 269 0.0 0.0 0.00 0.14 0.14 70 1009.3
20260507023037 68 343 4.0 5.0 0.00 0.14 0.14 70 1009.6
20260507022534 68 7 5.0 6.0 0.00 0.14 0.14 72 1009.4
20260507022029 68 337 5.0 7.0 0.00 0.14 0.14 79 1009.6
20260507021525 67 321 3.0 3.0 0.00 0.14 0.14 81 1009.4
20260507021022 67 266 2.0 2.0 0.00 0.14 0.14 83 1009.1
20260507020520 67 207 0.0 0.0 0.00 0.14 0.14 84 1009.1
20260507020016 66 207 0.0 0.0 0.00 0.14 0.14 84 1009.5
20260507015514 66 208 0.0 1.0 0.00 0.14 0.14 86 1009.4
20260507015012 66 200 0.0 0.0 0.00 0.14 0.14 88 1009.4
20260507014508 65 200 0.0 0.0 0.00 0.14 0.14 88 1009.6
20260507014003 66 200 0.0 0.0 0.00 0.14 0.14 88 1009.5
20260507013500 66 200 0.0 0.0 0.00 0.14 0.14 88 1009.4
20260507012958 66 200 0.0 0.0 0.00 0.14 0.14 88 1009.5
20260507012455 66 200 0.0 0.0 0.00 0.14 0.14 88 1009.7
20260507011951 66 200 0.0 0.0 0.00 0.14 0.14 88 1009.5
20260507011448 66 200 0.0 0.0 0.00 0.14 0.14 88 1009.5
20260507010944 66 200 0.0 0.0 0.00 0.14 0.14 88 1009.6
20260507010438 66 200 0.0 0.0 0.00 0.14 0.14 87 1009.5
20260507005935 66 200 0.0 0.0 0.00 0.14 0.14 87 1009.3
20260507005433 66 200 0.0 0.0 0.00 0.14 0.14 86 1009.3
20260507004929 66 200 0.0 0.0 0.00 0.14 0.14 86 1009.4
20260507004426 66 200 0.0 0.0 0.00 0.14 0.14 86 1009.3
20260507003924 66 199 0.0 0.0 0.00 0.14 0.14 86 1009.5
20260507003418 66 200 0.0 0.0 0.00 0.14 0.14 86 1009.3
20260507002914 66 235 0.0 0.0 0.00 0.14 0.14 86 1009.1
20260507002410 66 235 0.0 0.0 0.00 0.14 0.14 86 1009.2
20260507001908 66 235 0.0 0.0 0.00 0.14 0.14 86 1009.1
20260507001404 66 235 0.0 0.0 0.00 0.14 0.14 86 1009.0
20260507000902 66 235 0.0 0.0 0.00 0.14 0.14 87 1009.0
20260507000358 66 237 0.0 0.0 0.00 0.14 0.14 87 1009.1
20260506235853 66 238 0.0 0.0 0.00 0.14 0.14 87 1009.1
20260506235350 66 238 0.0 0.0 0.00 0.14 0.14 86 1008.7
20260506234846 66 238 0.0 0.0 0.00 0.14 0.14 86 1008.8
20260506234344 67 224 0.0 1.0 0.00 0.14 0.14 85 1008.9
20260506233841 67 229 0.0 0.0 0.00 0.14 0.14 84 1008.8
20260506233337 68 231 0.0 0.0 0.00 0.14 0.14 83 1008.8
20260506232834 68 230 0.0 0.0 0.00 0.14 0.14 82 1008.8
20260506232330 68 230 0.0 0.0 0.00 0.14 0.14 80 1008.7
20260506231827 68 230 0.0 0.0 0.00 0.14 0.14 80 1008.7
20260506231324 69 246 0.0 0.0 0.00 0.14 0.14 79 1008.9
20260506230822 69 237 0.0 0.0 0.00 0.14 0.14 79 1008.7
20260506230318 69 244 0.0 0.0 0.00 0.14 0.14 78 1008.6
20260506225814 69 241 0.0 0.0 0.00 0.14 0.14 79 1008.3
20260506225312 69 223 0.0 1.0 0.00 0.14 0.14 78 1008.3
20260506224808 69 255 0.0 0.0 0.00 0.14 0.14 78 1008.5
20260506224306 69 229 0.0 0.0 0.00 0.14 0.14 78 1008.6
20260506223802 69 243 0.0 0.0 0.00 0.14 0.14 78 1008.7
20260506223257 69 228 0.0 1.0 0.00 0.14 0.14 78 1008.7
20260506222754 70 247 0.0 0.0 0.00 0.14 0.14 78 1008.5
20260506222250 70 229 0.0 0.0 0.00 0.14 0.14 77 1008.6
20260506221748 70 242 0.0 0.0 0.00 0.14 0.14 77 1008.6
20260506221246 70 237 0.0 0.0 0.00 0.14 0.14 76 1008.8
20260506220743 71 239 0.0 0.0 0.00 0.14 0.14 75 1008.5
20260506220237 71 258 0.0 0.0 0.00 0.14 0.14 76 1008.5
20260506215735 71 263 0.0 0.0 0.00 0.14 0.14 75 1008.6
20260506215230 71 248 0.0 1.0 0.00 0.14 0.14 74 1008.5
20260506214727 71 214 0.0 1.0 0.00 0.14 0.14 73 1008.6
20260506214224 72 189 1.0 1.0 0.00 0.14 0.14 72 1008.5
20260506213722 72 228 0.0 1.0 0.00 0.14 0.14 73 1008.3
20260506213219 71 193 1.0 2.0 0.00 0.14 0.14 73 1008.5
20260506212717 71 240 0.0 0.0 0.00 0.14 0.14 74 1008.5
20260506212212 71 236 0.0 0.0 0.00 0.14 0.14 75 1008.4
20260506211708 71 253 0.0 0.0 0.00 0.14 0.14 76 1008.3
20260506211204 69 224 0.0 1.0 0.00 0.14 0.14 78 1008.1
20260506210701 69 242 1.0 2.0 0.00 0.14 0.14 80 1008.4
20260506210158 68 217 1.0 2.0 0.00 0.14 0.14 80 1008.1
20260506205655 68 214 0.0 0.0 0.00 0.14 0.14 81 1008.3
20260506205150 68 225 0.0 0.0 0.00 0.14 0.14 81 1008.4
20260506204648 68 251 0.0 0.0 0.00 0.14 0.14 81 1008.2
20260506204144 68 139 2.0 2.0 0.00 0.14 0.14 79 1008.2
20260506203643 70 180 2.0 3.0 0.00 0.14 0.14 77 1008.4
20260506203139 71 201 3.0 3.0 0.00 0.14 0.14 75 1008.1
20260506202637 71 238 0.0 1.0 0.00 0.14 0.14 74 1008.0
20260506202133 71 207 2.0 3.0 0.00 0.14 0.14 73 1008.2
20260506201630 71 261 0.0 0.0 0.00 0.14 0.14 74 1008.2
20260506201127 71 237 0.0 1.0 0.00 0.14 0.14 75 1008.0
20260506200623 71 263 2.0 2.0 0.00 0.14 0.14 71 1008.1
20260506200120 71 228 0.0 1.0 0.00 0.14 0.14 73 1008.2
20260506195617 71 282 1.0 1.0 0.00 0.14 0.14 74 1008.4
20260506195113 71 243 0.0 0.0 0.00 0.14 0.14 73 1008.3
20260506194611 71 237 1.0 1.0 0.00 0.14 0.14 73 1008.3
20260506194107 72 237 0.0 0.0 0.00 0.14 0.14 73 1008.3
20260506193605 71 238 0.0 0.0 0.00 0.14 0.14 73 1008.1
20260506193102 70 272 0.0 0.0 0.00 0.14 0.14 74 1008.4
20260506192559 70 11 1.0 1.0 0.00 0.14 0.14 75 1008.3
20260506192054 70 229 1.0 2.0 0.00 0.14 0.14 75 1008.4
20260506191551 71 240 2.0 3.0 0.00 0.14 0.14 73 1008.6
20260506191047 71 242 0.0 0.0 0.00 0.14 0.14 74 1008.5
20260506190545 70 254 0.0 1.0 0.00 0.14 0.14 75 1008.8
20260506190041 70 212 1.0 1.0 0.00 0.14 0.14 76 1008.7
20260506185539 69 251 0.0 1.0 0.00 0.14 0.14 77 1008.8
20260506185035 68 256 2.0 2.0 0.00 0.14 0.14 78 1008.9
20260506184533 68 286 1.0 2.0 0.00 0.14 0.14 78 1008.9
20260506184030 68 224 2.0 2.0 0.00 0.14 0.14 79 1009.0
20260506183525 68 254 0.0 0.0 0.00 0.14 0.14 79 1009.0
20260506183022 67 253 0.0 0.0 0.00 0.14 0.14 79 1009.0
20260506182520 67 262 0.0 0.0 0.00 0.14 0.14 80 1009.0
20260506182017 67 239 0.0 0.0 0.00 0.14 0.14 81 1009.1
20260506181515 67 236 1.0 2.0 0.00 0.14 0.14 80 1009.2
20260506181011 67 230 0.0 1.0 0.00 0.14 0.14 81 1009.3
20260506180508 67 237 0.0 0.0 0.00 0.14 0.14 81 1009.2
20260506180005 67 247 1.0 1.0 0.00 0.14 0.14 82 1009.2
20260506175501 67 245 0.0 1.0 0.00 0.14 0.14 83 1009.2
20260506174957 66 258 1.0 1.0 0.00 0.14 0.14 83 1009.2
20260506174456 66 262 3.0 3.0 0.00 0.14 0.14 84 1009.3
20260506173952 66 197 0.0 1.0 0.00 0.14 0.14 85 1009.2
20260506173450 66 247 0.0 0.0 0.00 0.14 0.14 85 1009.3
20260506172946 66 262 0.0 1.0 0.00 0.14 0.14 85 1009.7
20260506172444 65 252 1.0 1.0 0.00 0.14 0.14 86 1009.2
20260506171940 65 264 3.0 5.0 0.00 0.14 0.14 86 1009.5
20260506171437 64 251 0.0 0.0 0.00 0.14 0.14 87 1009.4
20260506170935 64 225 0.0 0.0 0.00 0.14 0.14 88 1009.5
20260506170431 64 248 0.0 1.0 0.00 0.14 0.14 89 1009.6
20260506165930 64 226 1.0 1.0 0.00 0.14 0.14 89 1009.5
20260506165428 64 235 0.0 1.0 0.00 0.14 0.14 90 1009.6
20260506164924 64 145 1.0 2.0 0.00 0.14 0.14 90 1009.8
20260506164421 63 247 0.0 0.0 0.00 0.14 0.14 90 1009.6
20260506163919 63 233 0.0 1.0 0.00 0.14 0.14 90 1009.6
20260506163413 64 259 0.0 1.0 0.00 0.14 0.14 90 1009.8
20260506162909 63 241 0.0 0.0 0.00 0.14 0.14 90 1009.7
20260506162407 63 285 1.0 1.0 0.00 0.14 0.14 90 1009.7
20260506161904 63 115 1.0 2.0 0.00 0.14 0.14 91 1009.8
20260506161402 62 223 1.0 2.0 0.00 0.14 0.14 91 1009.7
20260506160859 62 225 1.0 2.0 0.00 0.14 0.14 91 1009.8
20260506160356 63 242 1.0 1.0 0.00 0.14 0.14 91 1010.0
20260506155854 63 235 0.0 0.0 0.00 0.14 0.14 90 1010.1
20260506155351 63 219 1.0 2.0 0.00 0.14 0.14 91 1010.2
20260506153508 62 241 1.0 2.0 0.00 0.14 0.14 92 1010.0
20260506153005 62 246 0.0 0.0 0.00 0.14 0.14 93 1010.5
20260506152502 62 222 2.0 2.0 0.05 0.14 0.14 92 1010.5
20260506152000 62 236 0.0 1.0 0.05 0.14 0.14 92 1010.5
20260506151457 62 244 1.0 2.0 0.14 0.13 0.13 92 1010.5
20260506150955 62 256 0.0 1.0 0.26 0.13 0.13 92 1010.6
20260506150450 62 251 1.0 1.0 0.17 0.11 0.11 91 1010.6
20260506145948 62 240 0.0 1.0 0.17 0.09 0.09 91 1010.8
20260506145444 62 247 0.0 0.0 0.12 0.08 0.08 90 1010.8
20260506144942 62 231 0.0 0.0 0.00 0.06 0.06 89 1010.6
20260506144438 62 227 0.0 0.0 0.07 0.06 0.06 89 1010.6
20260506143937 62 251 0.0 1.0 0.07 0.06 0.06 89 1010.5
20260506143433 62 289 0.0 0.0 0.05 0.05 0.05 88 1010.5
20260506142932 63 226 0.0 0.0 0.05 0.05 0.05 88 1010.5
20260506142429 63 235 0.0 0.0 0.07 0.04 0.04 87 1010.4
20260506141927 63 241 0.0 0.0 0.12 0.04 0.04 87 1010.7
20260506141425 63 248 0.0 0.0 0.12 0.03 0.03 87 1010.7
20260506140923 63 233 0.0 1.0 0.07 0.02 0.02 86 1010.8
20260506140419 64 202 1.0 2.0 0.00 0.01 0.01 84 1010.9
20260506135916 64 238 0.0 0.0 0.05 0.01 0.01 84 1010.9
20260506135414 64 246 1.0 2.0 0.05 0.01 0.01 84 1011.3
20260506134909 64 234 0.0 0.0 0.00 0.00 0.00 84 1010.9
20260506134406 64 236 0.0 0.0 0.00 0.00 0.00 83 1011.0
20260506133903 64 237 0.0 0.0 0.00 0.00 0.00 80 1010.8
20260506133359 65 236 1.0 2.0 0.00 0.00 0.00 80 1010.6
20260506132856 65 215 1.0 3.0 0.00 0.00 0.00 79 1010.7
20260506132353 65 231 1.0 1.0 0.00 0.00 0.00 80 1010.8
20260506131852 65 234 0.0 0.0 0.00 0.00 0.00 79 1010.5
20260506131347 66 226 0.0 0.0 0.00 0.00 0.00 78 1010.6
20260506130845 66 221 2.0 2.0 0.00 0.00 0.00 75 1010.3
20260506130341 67 247 0.0 0.0 0.00 0.00 0.00 75 1010.5
20260506125839 66 235 0.0 0.0 0.00 0.00 0.00 76 1010.4
20260506125337 66 239 0.0 0.0 0.00 0.00 0.00 77 1010.5
20260506124835 66 247 0.0 0.0 0.00 0.00 0.00 77 1010.3
20260506124332 65 231 0.0 0.0 0.00 0.00 0.00 78 1010.6
20260506123829 65 218 0.0 1.0 0.00 0.00 0.00 78 1010.7
20260506123328 65 233 0.0 0.0 0.00 0.00 0.00 78 1010.8
20260506122825 65 238 0.0 0.0 0.00 0.00 0.00 80 1010.8
20260506122321 64 247 0.0 1.0 0.00 0.00 0.00 80 1010.9
20260506121820 64 225 0.0 1.0 0.00 0.00 0.00 81 1011.0
20260506121316 64 234 0.0 1.0 0.00 0.00 0.00 80 1010.8
20260506120814 64 238 0.0 0.0 0.00 0.00 0.00 80 1011.0
20260506120311 65 232 2.0 2.0 0.00 0.00 0.00 79 1011.0
20260506115809 65 228 0.0 0.0 0.00 0.00 0.00 79 1010.8
20260506115307 65 244 0.0 0.0 0.00 0.00 0.00 79 1010.6
20260506114804 65 227 1.0 1.0 0.00 0.00 0.00 79 1010.7
20260506114302 65 241 2.0 2.0 0.00 0.00 0.00 79 1010.7
20260506113800 65 209 1.0 2.0 0.00 0.00 0.00 80 1010.6
20260506113258 65 232 0.0 1.0 0.00 0.00 0.00 80 1010.7
20260506112754 66 229 0.0 1.0 0.00 0.00 0.00 78 1010.7
20260506112251 66 201 2.0 2.0 0.00 0.00 0.00 78 1010.9
20260506111748 65 228 3.0 5.0 0.00 0.00 0.00 79 1010.6
20260506111247 64 222 1.0 1.0 0.00 0.00 0.00 82 1010.2
20260506110743 64 230 1.0 1.0 0.00 0.00 0.00 82 1010.3
20260506110241 64 238 3.0 5.0 0.00 0.00 0.00 82 1010.2
20260506105737 64 216 1.0 2.0 0.00 0.00 0.00 82 1010.1
20260506105234 64 230 0.0 0.0 0.00 0.00 0.00 81 1010.2
20260506104732 64 210 1.0 1.0 0.00 0.00 0.00 82 1010.0
20260506104229 64 232 0.0 1.0 0.00 0.00 0.00 83 1010.1
20260506103726 63 239 2.0 5.0 0.00 0.00 0.00 83 1010.1
20260506103224 63 227 2.0 3.0 0.00 0.00 0.00 83 1010.4
20260506102721 63 218 1.0 1.0 0.00 0.00 0.00 83 1010.1
20260506102220 63 218 1.0 1.0 0.00 0.00 0.00 83 1010.2
20260506101716 63 222 1.0 2.0 0.00 0.00 0.00 83 1010.1
20260506101212 63 227 1.0 1.0 0.00 0.00 0.00 83 1010.1
20260506100711 63 212 1.0 1.0 0.00 0.00 0.00 82 1010.0
20260506100208 63 213 0.0 1.0 0.00 0.00 0.00 82 1010.1
20260506095707 63 243 0.0 0.0 0.00 0.00 0.00 82 1009.9
20260506095203 63 227 2.0 2.0 0.00 0.00 0.00 82 1010.1
20260506094700 64 220 0.0 0.0 0.00 0.00 0.00 82 1010.0
20260506094158 64 228 1.0 1.0 0.00 0.00 0.00 82 1010.0
20260506093657 64 217 1.0 1.0 0.00 0.00 0.00 82 1009.9
20260506093153 64 169 2.0 3.0 0.00 0.00 0.00 81 1010.0
20260506092651 64 235 0.0 1.0 0.00 0.00 0.00 81 1010.0
20260506092148 64 235 0.0 1.0 0.00 0.00 0.00 80 1009.8
20260506091646 64 243 3.0 6.0 0.00 0.00 0.00 80 1010.0
20260506091143 64 234 0.0 1.0 0.00 0.00 0.00 81 1010.0
20260506090641 64 227 3.0 3.0 0.00 0.00 0.00 81 1010.2
20260506090137 64 229 0.0 0.0 0.00 0.00 0.00 81 1010.1
20260506085634 64 179 2.0 3.0 0.00 0.00 0.00 80 1010.2
20260506085130 64 216 1.0 1.0 0.00 0.00 0.00 81 1010.4
20260506084627 64 243 2.0 3.0 0.00 0.00 0.00 81 1010.2
20260506084124 64 234 0.0 1.0 0.00 0.00 0.00 81 1010.2
20260506083621 64 189 3.0 7.0 0.00 0.00 0.00 80 1010.1
20260506083119 64 226 2.0 2.0 0.00 0.00 0.00 80 1010.1
20260506082615 64 225 0.0 2.0 0.00 0.00 0.00 80 1010.1
20260506082111 64 205 2.0 2.0 0.00 0.00 0.00 80 1010.2
20260506081609 64 211 3.0 5.0 0.00 0.00 0.00 80 1010.0
20260506081106 64 233 3.0 3.0 0.00 0.00 0.00 80 1010.1
20260506080604 65 231 2.0 3.0 0.00 0.00 0.00 79 1010.0
20260506073044 65 232 0.0 0.0 0.00 0.00 0.00 79 1010.2
20260506072541 65 230 0.0 0.0 0.00 0.00 0.00 78 1010.3
20260506072039 65 184 1.0 3.0 0.00 0.00 0.00 78 1010.2
20260506071537 66 235 1.0 2.0 0.00 0.00 0.00 78 1010.5
20260506071034 66 196 2.0 3.0 0.00 0.00 0.00 78 1010.4
20260506070531 66 235 2.0 3.0 0.00 0.00 0.00 77 1010.4
20260506062508 66 240 2.0 2.0 0.00 0.00 0.00 75 1010.5
20260506062005 66 188 1.0 2.0 0.00 0.00 0.00 75 1010.6
20260506061501 66 240 0.0 0.0 0.00 0.00 0.00 75 1010.6
20260506060959 66 220 0.0 0.0 0.00 0.00 0.00 75 1010.6
20260506060457 66 238 0.0 0.0 0.00 0.00 0.00 75 1010.7
20260506050925 66 233 0.0 1.0 0.00 0.00 0.00 72 1011.0
20260506050423 66 228 0.0 0.0 0.00 0.00 0.00 71 1010.9
20260506044914 66 235 0.0 0.0 0.00 0.00 0.00 71 1011.1
20260506044412 66 222 0.0 1.0 0.00 0.00 0.00 71 1010.9
20260506043909 67 237 0.0 0.0 0.00 0.00 0.00 70 1011.0
20260506043406 67 231 0.0 1.0 0.00 0.00 0.00 70 1011.0
20260506042904 67 198 0.0 1.0 0.00 0.00 0.00 70 1011.0
20260506042403 67 233 0.0 0.0 0.00 0.00 0.00 71 1010.9
20260506041901 67 233 2.0 2.0 0.00 0.00 0.00 69 1011.1
20260506041357 67 230 1.0 2.0 0.00 0.00 0.00 69 1010.9
20260506040855 67 230 0.0 1.0 0.00 0.00 0.00 69 1011.1